Tracking 29892 objects as of 21-Nov-2024
HD Live streaming from Space Station
objects crossing your sky now

ARIANE 2 DEB

Track ARIANE 2 DEB now!


NORAD ID: 33574
Int'l Code: 1989-006BS
Perigee: 563.7 km
Apogee: 35,312.7 km
Inclination: 8.6 °
Period: 628.7 minutes
Semi major axis: 24309 km
RCS: 0.1289 m2 (medium)
Launch date: January 27, 1989
Source: France (FR)
Launch site: FRENCH GUIANA (FRGUI)

Note: This is SATELLITE DEBRIS
Your satellite tracking list
Your tracking list is empty




NASA's NSSDC Master Catalog

Two Line Element Set (TLE):
1 33574U 89006BS  24324.79929101  .00002075  00000-0  22727-1 0  9993
2 33574   8.6214   4.3903 7147296 229.8426  35.7540  2.29058572156391
Source of the keplerian elements: AFSPC